Probability
0 0 0 0 0 0 0 0 0 0 0 0 0 0 0 0 0 0 0 0 0 0 0 0 0 0 0 0 0 0 0 0 0 0 0 0 0 0 0 0 0 0 0
0 0 0 0 0 0 0 0 0 0 0 0 0 0 0 0 0 0 0 0 0 0 0 0 0 0 0 0 0 0 0 0 0 0 0 0 0 0 0 0 0 0 0
0 0 0 0 0 0 0 0 0 0 0 0 0 0 0 0 0 0 0 0 0 0 0 0 0 0 0 0 0 0 0 0 0 0 0 0 0 0 0 0 0 0 0
0 0 0 0 0 0 0 0 0 0 0 0 0 0 0 0 0 0 0 0 0 0 0 0 0 0 0 0 0 0 0 0 0 0 0 0 0 0 0 0 0 0 0
0 0 0 0 0 0 0 0 0 0 0 0 0 0 0 0 0 0 0 0 0 0 0 0 0 0 0 0 0 0 0 0 0 0 0 0 0 0 0 0 0 0 0
0 0 0 0 0 0 0 0 0 0 0 0 0 0 0 0 0 0 0 0 0 0 0 0 0 0 0 0 0 0 0 0 0 0 0 0 0 0 0 0 0 0 0
0 0 0 0 0 0 0 0 0 0 0 0 0 0 0 0 0 0 0 0 0 0 0 0 0 0 0 0 0 0 0 0 0 0 0 0 0 0 0 0 0 0 0
0 0 0 0 0 0 0 0 0 0 0 0 0 0 0 0 0 0 0 0 0 0 0 0 0 0 0 0 0 0 0 0 0 0 0 0 0 0 0 0 0 0 0
0 0 0 0 0 0 0 0 0 0 0 0 0 0 0 0 0 0 0 0 0 0 0 0 0 0 0 0 0 0 0 0 0 0 0 0 0 0 0 0 0 0 0
0 0 0 0 0 0 0 0 0 0 0 0 0 0 0 0 0 0 0 0 0 0 0 0 0 0 0 0 0 0 0 0 0 0 0 0 0 0 0 0 0 0 0
0 0 0 0 0 0 0 0 0 0 0 0 0 0 0 0 0 0 0 0 0 0 0 0 0 0 0 0 0 0 0 0 0 0 0 0 0 0 0 0 0 0 0
0 0 0 0 0 0 0 0 0 0 0 0 0 0 0 0 0 0 0 0 0 0 0 0 0 0 0 0 0 0 0 0 0 0 0 0 0 0 0 0 0 0 0
0 0 0 0 0 0 0 0 0 0 0 0 0 0 0 0 0 0 0 0 0 0 0 0 0 0 0 0 0 0 0 0 0 0 0 0 0 0 0 0 0 0 0
0 0 0 0 0 0 0 0 0 0 0 0 0 0 0 0 0 0 0 0 0 0 0 0 0 0 0 0 0 0 0 0 0 0 0 0 0 0 0 0 0 0 0
0 0 0 0 0 0 0 0 0 0 0 0 0 0 0 0 0 0 0 0 0 0 0 0 0 0 0 0 0 0 0 0 0 0 0 0 0 0 0 0 0 0 0
0 0 0 0 0 0 0 0 0 0 0 0 0 0 0 0 0 0 0 0 0 0 0 0 0 0 0 0 0 0 0 0 0 0 0 0 0 0 0 0 0 0 0
0 0 0 0 0 0 0 0 0 0 0 0 0 0 0 0 0 0 0 0 0 0 0 0 0 0 0 0 0 0 0 0 0 0 0 0 0 0 0 0 0 0 0
0 0 0 0 0 0 0 0 0 0 0 0 0 0 0 0 0 0 0 0 0 0 0 0 0 0 0 0 0 0 0 0 0 0 0 0 0 0 0 0 0 0 0
0 0 0 0 0 0 0 0 0 0 0 0 0 0 0 0 0 0 0 0 0 0 0 0 0 0 0 0 0 0 0 0 0 0 0 0 0 0 0 0 0 0 0
0 0 0 0 0 0 0 0 0 0 0 0 0 0 0 0 0 0 0 0 0 0 0 0 0 0 0 0 0 0 0 0 0 0 0 0 0 0 0 0 0 0 0
0 0 0 0 0 0 0 0 0 0 0 0 0 0 0 0 0 0 0 0 0 0 0 0 0 0 0 0 0 0 0 0 0 0 0 0 0 0 0 0 0 0 0
0 0 0 0 0 0 0 0 0 0 0 0 0 0 0 0 0 0 0 0 0 0 0 0 0 0 0 0 0 0 0 0 0 0 0 0 0 0 0 0 0 0 0
0 0 0 0 0 0 0 0 0 0 0 0 0 0 0 0 0 0 0 0 0 0 0 0 0 0 0 0 0 0 0 0 0 0 0 0 0 0 0 0 0 0 0
0 0 0 0 0 0 0 0 0 0 0 0 0 0 0 0 0 0 0 0 0 0 0 0 0 0 0 0 0 0 0 0 0 0 0 0 0 0 0 0 0 0 0
0 0 0 0 0 0 0 0 0 0 0 0 0 0 0 0 0 0 0 0 0 0 0 0 0 0 0 0 0 0 0 0 0 0 0 0 0 0 0 0 0 0 0
0 0 0 0 0 0 0 0 0 0 0 0 0 0 0 0 0 0 0 0 0 0 0 0 0 0 0 0 0 0 0 0 0 0 0 0 0 0 0 0 0 0 0
Wind_Speed
13 13 13 12 11 10 10 10 8 7 7 7 7 8 8 8 8 7 7 7 6 6 5 5 4 3 3 3 2 1 1 1 2 4 3 4 5 7 8 7 6 6 7
12 12 12 11 10 10 10 9 8 7 7 7 7 8 9 9 8 8 7 7 6 6 5 5 5 4 4 3 2 2 2 2 2 4 4 4 5 7 7 7 7 7 5
11 12 11 10 10 10 9 8 8 8 7 7 8 9 8 7 7 6 6 6 5 5 5 4 5 4 4 3 3 3 3 3 2 3 5 4 4 5 6 7 7 6 8
11 11 10 9 9 8 8 8 7 7 7 7 7 7 6 6 6 6 5 5 5 5 5 5 5 4 4 4 3 3 3 4 4 4 5 5 5 6 4 5 6 5 6
10 10 8 8 8 8 8 7 7 7 7 6 6 5 5 4 4 4 5 5 5 6 6 6 6 7 6 3 2 3 3 3 4 4 5 5 6 5 5 4 6 6 7
9 8 7 7 7 7 6 6 6 6 5 5 5 4 3 3 4 6 6 4 5 6 6 6 7 6 6 6 8 9 8 6 5 4 5 7 8 7 6 6 6 6 5
8 7 6 6 6 5 6 5 5 4 4 4 3 3 2 0 2 5 9 5 5 5 5 5 6 6 5 4 7 11 11 13 11 6 7 8 7 7 7 7 6 6 7
7 6 5 5 5 5 5 4 3 2 2 1 1 1 1 2 2 4 8 6 5 6 6 6 5 6 5 5 5 7 8 8 9 6 6 8 8 8 7 6 6 6 7
6 5 4 4 4 4 4 2 2 1 1 1 0 1 1 3 4 4 5 4 5 6 7 7 7 6 9 9 6 8 9 9 9 10 11 11 13 13 8 4 4 5 6
4 4 4 4 4 3 2 1 1 1 1 1 1 1 1 2 4 5 6 3 4 6 6 7 9 9 12 12 7 6 8 9 8 10 9 9 7 8 9 4 4 5 5
3 3 3 2 2 1 1 1 1 2 2 3 3 3 2 2 3 5 8 3 4 5 6 6 7 12 15 15 10 6 8 9 7 6 6 6 5 5 5 4 3 3 4
3 3 2 1 1 2 2 2 3 3 3 3 3 4 3 3 4 6 10 9 8 4 5 6 8 15 16 14 9 8 11 8 4 4 4 4 4 4 5 5 5 5 4
2 1 0 1 1 1 2 2 3 3 3 3 3 3 3 3 4 8 10 11 12 6 6 12 14 15 13 9 9 12 8 4 3 3 4 4 4 4 4 4 5 5 5
1 1 1 0 0 1 1 2 2 2 2 2 2 3 3 4 4 5 6 7 9 8 7 11 13 11 8 8 7 6 4 3 3 3 3 4 4 4 3 3 3 4 4
0 1 1 1 1 1 1 1 2 2 2 2 0 1 2 4 6 9 7 6 6 7 7 5 4 5 6 6 6 5 5 4 4 3 3 3 4 4 4 3 3 3 3
1 1 1 1 1 2 2 1 2 1 2 2 2 2 3 5 10 12 12 12 13 11 5 4 5 5 5 5 6 5 4 4 4 3 3 3 3 4 4 3 3 3 3
2 1 1 1 1 2 2 2 1 2 3 4 5 6 6 9 10 11 12 13 11 9 4 4 5 5 5 5 5 4 4 4 4 4 3 4 4 3 3 3 3 3 3
2 2 1 1 2 2 3 2 2 1 1 3 4 6 8 9 10 10 11 8 6 6 4 5 5 5 5 5 5 4 4 5 4 4 4 4 4 3 3 4 3 3 3
2 1 0 1 1 2 2 2 2 1 0 1 2 4 6 7 7 8 7 3 4 5 5 5 5 5 5 5 5 5 4 4 5 4 4 5 4 3 3 3 3 4 3
1 1 2 2 3 3 3 3 2 1 1 1 1 2 4 4 4 5 4 4 4 4 5 5 5 5 5 5 5 5 5 5 6 5 5 5 5 3 3 4 3 3 3
0 1 3 3 3 3 3 3 2 2 1 1 1 2 3 2 3 4 4 4 4 4 5 5 5 5 5 5 5 6 6 5 5 5 6 6 5 4 4 3 3 3 3
1 2 2 3 3 2 3 3 2 2 1 0 1 3 4 3 3 4 4 4 4 4 4 4 4 4 4 5 5 6 6 6 6 6 6 6 6 5 4 4 4 3 3
1 3 3 3 3 3 3 3 2 2 1 1 1 2 3 3 3 4 4 4 4 4 4 4 5 5 5 5 4 4 5 6 6 6 6 6 5 4 4 4 4 4 4
1 3 4 3 3 3 3 3 2 2 2 1 1 2 2 3 3 4 4 4 4 4 4 5 5 7 10 8 6 5 5 6 6 5 6 5 5 4 4 4 4 5 4
2 4 4 4 4 4 3 3 3 2 1 1 1 1 2 3 3 4 4 4 4 5 6 6 5 7 10 11 11 10 11 10 8 6 4 4 5 5 5 5 4 4 5
3 4 4 4 4 4 3 3 3 2 1 1 1 1 2 3 3 4 4 4 4 5 5 5 8 9 11 10 12 13 12 12 11 10 5 4 5 6 5 5 6 5 5
Wind_Direction
77 81 82 81 81 82 82 80 78 75 73 75 75 72 65 57 51 53 49 42 40 27 19 21 6 356 355 344 346 347 328 193 254 276 271 287 300 302 308 303 297 290 289
82 82 82 80 79 78 76 74 73 71 67 69 69 68 67 62 56 53 44 36 30 19 5 3 345 341 336 320 315 309 294 272 245 284 290 294 292 292 289 293 298 298 292
81 81 80 78 76 76 74 71 69 69 67 68 72 74 70 63 55 47 41 29 15 360 347 340 324 327 316 303 298 294 289 296 274 276 287 285 286 290 295 294 291 289 293
81 80 79 76 76 76 74 72 71 72 72 74 80 81 79 69 56 38 27 15 356 342 333 324 316 307 291 289 290 290 288 297 295 289 287 289 284 284 280 286 295 288 289
83 80 79 79 78 75 72 69 66 67 72 78 86 87 82 70 52 37 12 1 345 334 328 323 318 326 339 328 315 296 293 287 290 288 287 291 293 297 292 278 289 293 286
85 83 81 78 76 73 71 69 67 64 63 70 80 93 85 72 42 26 13 349 336 330 323 321 318 323 330 338 335 327 316 300 289 278 284 290 293 289 286 287 289 298 295
88 88 83 81 80 76 78 73 68 63 64 69 82 107 120 138 16 8 3 359 338 328 321 316 321 326 326 312 316 319 313 304 293 279 277 283 287 287 288 290 286 283 282
89 88 87 90 85 78 73 67 58 54 61 71 96 151 184 248 292 345 353 356 338 329 323 316 312 310 304 302 305 307 300 294 289 284 262 271 280 281 276 278 281 284 277
86 86 90 93 90 83 73 61 50 56 35 356 232 191 230 269 277 310 346 339 328 323 319 321 318 309 303 309 306 302 303 301 300 292 285 286 288 291 290 284 293 297 301
101 102 96 94 100 101 96 67 17 42 336 328 337 317 274 272 280 301 334 332 323 320 316 313 314 309 309 312 300 289 295 298 307 314 314 313 308 304 308 286 275 292 299
109 100 92 93 114 128 98 25 20 20 9 359 356 346 344 328 325 330 339 332 312 311 313 312 309 312 315 313 308 278 274 288 298 302 307 309 313 314 313 308 284 268 288
92 86 86 98 112 105 75 35 36 41 32 17 12 1 356 4 15 350 346 340 335 309 303 304 305 312 315 316 315 305 309 312 304 312 316 316 316 315 309 310 307 299 280
88 75 336 33 47 83 103 84 61 56 52 27 19 2 343 344 342 345 340 334 333 324 301 309 313 316 320 320 320 325 330 330 323 321 318 307 299 298 307 318 322 324 322
122 273 265 320 358 63 90 111 107 88 67 36 12 351 333 324 325 333 331 328 329 328 321 317 317 319 328 325 327 333 333 320 313 307 305 304 312 325 327 323 321 329 333
16 308 281 229 177 140 105 122 142 173 171 154 236 292 321 320 308 317 319 317 315 310 316 315 327 336 343 341 338 337 335 339 339 328 324 325 327 331 323 322 326 332 334
307 318 301 207 177 146 129 65 31 183 181 166 203 253 280 284 305 319 325 325 325 327 330 327 329 332 333 333 333 331 330 333 329 328 327 324 322 321 319 321 329 330 327
221 242 252 210 175 167 161 161 216 324 308 293 289 298 306 313 323 329 332 330 331 341 350 336 332 330 331 330 329 326 319 316 317 325 325 320 319 319 321 323 330 333 329
231 245 222 206 183 168 172 177 174 188 308 317 308 301 315 324 331 337 340 344 346 353 344 334 331 331 331 331 329 326 325 330 334 331 326 321 319 318 323 327 329 329 327
232 234 193 151 152 140 138 134 136 146 151 318 328 328 330 333 336 341 349 357 337 334 333 333 330 330 331 332 328 326 328 330 334 331 328 325 320 317 317 320 323 329 335
266 190 131 130 129 124 126 130 134 131 106 353 329 316 328 349 349 338 340 335 335 331 330 332 332 336 337 336 333 335 339 341 342 339 332 328 324 319 314 315 320 321 319
188 100 119 122 135 141 140 146 151 148 157 281 296 305 338 342 329 326 330 333 333 330 331 335 338 342 343 343 344 346 346 341 338 336 333 330 330 330 324 327 328 324 321
177 177 158 151 150 147 144 144 146 149 147 355 314 325 346 354 336 333 333 333 332 334 336 341 344 344 343 345 345 346 344 341 337 336 332 329 331 334 337 342 345 348 348
174 157 151 150 150 139 127 129 135 136 123 77 350 341 345 344 338 337 336 336 343 353 357 3 360 354 350 346 343 343 335 323 311 305 312 320 329 335 341 347 353 360 4
128 142 144 142 136 131 132 135 137 135 125 89 14 351 340 337 336 339 342 346 360 9 11 10 7 358 354 353 346 342 330 313 303 295 301 317 335 345 353 0 2 8 12
107 128 133 135 134 132 131 131 133 130 119 88 24 358 348 349 348 348 353 5 22 24 19 13 6 1 354 352 353 346 336 333 336 332 326 345 1 5 11 11 14 19 24
106 125 129 129 130 133 134 135 136 136 130 103 57 20 7 4 360 1 7 24 35 24 16 8 4 4 359 355 349 344 344 349 352 355 359 10 19 18 17 21 24 27 32